User: anonymous
Location: ActonStarParty
(42.4766°N, 71.4538°W)
Time: 23:28:52
(UTC-04:00)
Language:

ITAMSAT 1 - Orbit

View from above orbital plane
View from above orbital plane
View from above satellite
View from above satellite

Ground track
Ground track

The orbit data is extracted from the following two-line orbital elements,

1 22826U 93061D   14258.78352860  .00000126  00000-0  65986-4 0  5171
2 22826 098.6642 204.6193 0009342 032.2123 327.9628 14.30048839 93866
Epoch (UTC): 15 September 2014 18:48:16
Eccentricity: 0.0009342
inclination: 98.6642°
perigee height: 785 km
apogee height: 798 km
right ascension of ascending node: 204.6193°
argument of perigee: 32.2123°
revolutions per day: 14.30048839
mean anomaly at epoch: 327.9628°
orbit number at epoch: 9386

The dashed part of the orbit path shows where the satellite is in the earth's shadow,  

DLR